Location: Équennes
(49.7375°N, 1.9622°E)
Time: 05:12:33
(UTC+00:00)

FLOCK 4Y 13 - Visible Passes

Search period start: 22 June 2024 00:00
Search period end: 02 July 2024 00:00
Orbit: 470 x 488 km, 97.4° (Epoch: 21 June)

Date Brightness Start Highest point End Pass type
(mag) Time Alt. Az. Time Alt. Az. Time Alt. Az.
22 Jun ? 21:15:02 10° S 21:18:32 51° W 21:22:02 10° NNW visible
23 Jun ? 20:48:49 10° SSE 20:52:23 76° ENE 20:55:57 10° N visible
24 Jun ? 21:57:14 10° SW 21:59:46 18° W 22:02:19 10° NW visible
25 Jun ? 21:30:08 10° SSW 21:33:25 34° W 21:36:42 10° NNW visible
26 Jun ? 21:03:35 10° S 21:07:08 72° WSW 21:10:42 10° NNW visible
27 Jun ? 22:12:53 10° WSW 22:14:35 13° W 22:16:15 10° WNW visible
28 Jun ? 21:45:09 10° SSW 21:48:05 24° W 21:51:02 10° NW visible
29 Jun ? 21:18:14 10° S 21:21:40 47° W 21:25:07 10° NNW visible
30 Jun ? 20:51:47 10° SSE 20:55:19 82° ENE 20:58:53 10° NNW visible
01 Jul ? 22:00:08 10° SW 22:02:32 17° W 22:04:57 10° NW visible
